Location: Pittsburgh
(40.4406°N, 79.9959°W)
Time: 18:27:51
(UTC-04:00)

GGSE 4 - Pass Details

Date: 29 January 2020
Orbit: 895 x 909 km, 70.0° (Epoch: 26 July)

Event Time Altitude Azimuth Distance (km) Brightness Sun altitude
Rises 18:24:44 0° 201° (SSW) 3,504 11.5 -9.9°
Reaches altitude 10° 18:27:12 10° 201° (SSW) 2,569 10.7 -10.4°
Maximum altitude 18:33:09 86° 115° (ESE) 911 7.8 -11.5°
Drops below altitude 10° 18:39:10 10° 26° (NNE) 2,595 9.9 -12.6°
Enters shadow 18:41:20 - 26° (NNE) 3,410 10.5 -13.0°
